User: anonymous   Login
Location: Unspecified
(0.0000°N, 0.0000°E)
Time: 13:45:08
(UTC+02:00)
Language:

Centaur D-1AR AC-41 - Orbit

View from above orbital plane
View from above orbital plane
View from above satellite
View from above satellite

Ground track
Ground track

The orbit data is extracted from the following two-line orbital elements,

1 10976U 78068B   16182.71945584 -.00000038  00000-0 -45056-3 0  9999
2 10976  21.7749 324.4273 7169354  42.1115  10.6626  2.22306499308435
Epoch (UTC): 30 June 2016 17:16:00
Eccentricity: 0.7169354
inclination: 21.7749°
perigee height: 641 km
apogee height: 36200 km
right ascension of ascending node: 324.4273°
argument of perigee: 42.1115°
revolutions per day: 2.22306499
mean anomaly at epoch: 10.6626°
orbit number at epoch: 30843

The dashed part of the orbit path shows where the satellite is in the earth's shadow,  

DLR